Weather History for Greenwood, SC

Change the Weather History Date:

Friday, January 18, 2013

  Actual Average (KAND) Record (KAND)
Temperature  
Mean Temperature 40 °F -  
Max Temperature 52 °F 52 °F 72 °F (1949)
Min Temperature 28 °F 32 °F 10 °F (1976)
Degree Days  
Heating Degree Days 25    
Moisture  
Dew Point 29 °F    
Average Humidity 71    
Maximum Humidity 96    
Minimum Humidity 34    
Precipitation  
Precipitation 0.00 in - - ()
Sea Level Pressure  
Sea Level Pressure 30.45 in    
Wind  
Wind Speed 3 mph (NNE)    
Max Wind Speed 8 mph    
Max Gust Speed -    
Visibility 10 miles    
Events Rain    
Averages and records for this station are not official NWS values.
T = Trace of Precipitation, MM = Missing Value Source: NWS Daily Summary

Daily Weather History Graph

Daily Weather History Graph

Search for Another Location

Airport:

Trip Planner

Search our weather history database for the weather conditions in past years. The results will help you decide how hot, cold, wet, or windy it might be!

Date:

Astronomy

Jan. 18, 2013 Rise Set
Actual Time 7:33 AM EST 5:45 PM EST
Civil Twilight 7:06 AM EST 6:12 PM EST
Nautical Twilight 6:35 AM EST 6:42 PM EST
Astronomical Twilight 6:05 AM EST 7:12 PM EST
Moon 11:33 AM EST (1/18) 12:13 AM EST (1/18)
Length of Visible Light 11h 05m
Length of Day
10h 11m
Waxing Crescent, 47% of the Moon is Illuminated
Jan 18
Waxing Crescent
Jan 18
First Quarter
Jan 26
Full
Feb 3
Last Quarter
Feb 10
New

Hourly Weather History & Observations

Time (EST) Temp. Windchill Dew Point Humidity Pressure Visibility Wind Dir Wind Speed Gust Speed Precip Events Conditions
12:56 AM 37.9 °F 33.5 °F 36.0 °F 93% 30.26 in 10.0 mi NNE 5.8 mph - N/A   Clear
2:56 AM 33.1 °F - 32.0 °F 96% 30.31 in 10.0 mi Calm Calm - N/A   Clear
3:56 AM 35.1 °F - 32.0 °F 89% 30.31 in 10.0 mi Calm Calm - N/A   Clear
4:56 AM 33.1 °F 30.0 °F 30.9 °F 92% 30.33 in 10.0 mi WNW 3.5 mph - N/A   Clear
5:56 AM 32.0 °F - 30.0 °F 92% 30.35 in 10.0 mi Calm Calm - N/A   Clear
6:56 AM 28.9 °F - 27.0 °F 92% 30.39 in 10.0 mi Calm Calm - N/A   Clear
7:56 AM 30.0 °F - 28.0 °F 92% 30.42 in 10.0 mi Calm Calm - N/A   Clear
8:56 AM 37.0 °F - 32.0 °F 82% 30.45 in 10.0 mi Calm Calm - N/A   Clear
9:56 AM 41.0 °F 35.8 °F 30.9 °F 67% 30.50 in 10.0 mi NNE 8.1 mph - 0.00 in Rain Light Rain
10:56 AM 44.1 °F 40.1 °F 28.9 °F 55% 30.52 in 10.0 mi North 6.9 mph - 0.00 in   Clear
11:56 AM 46.9 °F - 28.0 °F 48% 30.52 in 10.0 mi NE 4.6 mph - N/A   Clear
12:56 PM 50.0 °F - 26.1 °F 39% 30.49 in 10.0 mi Variable 4.6 mph - N/A   Clear
1:56 PM 51.1 °F - 25.0 °F 36% 30.48 in 10.0 mi Variable 5.8 mph - N/A   Clear
2:56 PM 52.0 °F - 24.1 °F 34% 30.48 in 10.0 mi Variable 5.8 mph - N/A   Clear
3:56 PM 52.0 °F - 25.0 °F 35% 30.47 in 10.0 mi ENE 5.8 mph - N/A   Clear
4:56 PM 52.0 °F - 25.0 °F 35% 30.48 in 10.0 mi NE 3.5 mph - N/A   Clear
5:56 PM 46.0 °F - 30.9 °F 56% 30.50 in 10.0 mi Calm Calm - N/A   Clear
6:56 PM 39.9 °F - 32.0 °F 73% 30.51 in 10.0 mi Calm Calm - N/A   Clear
7:56 PM 37.9 °F - 30.9 °F 76% 30.52 in 10.0 mi Calm Calm - N/A   Clear
8:56 PM 36.0 °F - 30.0 °F 79% 30.52 in 10.0 mi Calm Calm - N/A   Clear
9:56 PM 32.0 °F - 28.9 °F 88% 30.52 in 10.0 mi Calm Calm - N/A   Clear
10:56 PM 30.9 °F - 28.0 °F 89% 30.51 in 10.0 mi Calm Calm - N/A   Clear
11:56 PM 30.9 °F - 28.9 °F 92% 30.50 in 10.0 mi Calm Calm - N/A   Clear